W9GWP Weather Reports


Display with metric or nautical units.
time (UTC)temp
F
wind
direction
speed
MPH
gust
MPH
rain 1hr
in
rain 24hr
in
rain mn
in
humidity
%
barometer
mb
20260502163037 50 282 1.0 3.0 0.00 0.00 0.00 50 1048.4
20260502161532 51 350 3.0 6.0 0.00 0.00 0.00 46 1048.6
20260502151524 48 322 3.0 5.0 0.00 0.00 0.00 51 1049.1
20260502122948 38 233 2.0 5.0 0.00 0.00 0.00 88 1049.1
20260502121445 36 234 1.0 3.0 0.00 0.00 0.00 93 1048.9
20260502114437 34 173 0.0 0.0 0.00 0.00 0.00 96 1048.6
20260502112936 32 185 0.0 2.0 0.00 0.00 0.00 97 1048.4
20260502111433 30 111 0.0 0.0 0.00 0.00 0.00 97 1048.4
20260502105931 30 114 0.0 0.0 0.00 0.00 0.00 97 1048.6
20260502104429 30 126 1.0 1.0 0.00 0.00 0.00 97 1048.7
20260502102926 30 120 0.0 1.0 0.00 0.00 0.00 97 1048.1
20260502101425 30 114 0.0 0.0 0.00 0.00 0.00 97 1048.6
20260502091419 28 120 0.0 0.0 0.00 0.00 0.00 96 1048.4
20260502071354 29 66 0.0 0.0 0.00 0.00 0.00 95 1048.3
20260502065855 29 105 0.0 1.0 0.00 0.00 0.00 95 1048.2
20260502064354 30 148 0.0 1.0 0.00 0.00 0.00 95 1048.6
20260502062851 30 83 0.0 1.0 0.00 0.00 0.00 95 1048.7
20260502061350 30 120 0.0 2.0 0.00 0.00 0.00 95 1048.6
20260502055851 30 103 0.0 1.0 0.00 0.00 0.00 95 1048.9
20260502054350 31 98 0.0 0.0 0.00 0.00 0.00 95 1048.8
20260502052848 31 98 0.0 0.0 0.00 0.00 0.00 94 1049.0
20260502051343 31 98 0.0 0.0 0.00 0.00 0.00 93 1048.9
20260502045838 31 98 0.0 0.0 0.00 0.04 0.04 93 1048.9
20260502044333 31 98 0.0 0.0 0.00 0.04 0.04 93 1048.4
20260502042828 32 98 0.0 0.0 0.00 0.04 0.04 92 1048.3
20260502041326 32 98 0.0 0.0 0.00 0.04 0.04 92 1048.4
20260502035822 32 106 0.0 0.0 0.00 0.04 0.04 90 1048.4
20260502034320 32 106 0.0 0.0 0.00 0.04 0.04 89 1048.6
20260502032818 32 106 0.0 0.0 0.00 0.04 0.04 88 1048.3
20260502031316 32 106 0.0 0.0 0.00 0.04 0.04 86 1048.6
20260502025815 32 106 0.0 0.0 0.00 0.04 0.04 84 1048.3
20260502024313 34 106 0.0 0.0 0.00 0.04 0.04 83 1048.1
20260502022812 34 106 0.0 0.0 0.00 0.04 0.04 80 1048.2
20260502021308 35 106 0.0 1.0 0.00 0.04 0.04 77 1048.1
20260502015806 37 105 1.0 2.0 0.00 0.04 0.04 74 1047.9
20260502014302 37 69 1.0 2.0 0.00 0.04 0.04 73 1047.8
20260502012803 37 81 2.0 2.0 0.00 0.04 0.04 72 1047.6
20260502011259 38 102 1.0 3.0 0.00 0.04 0.04 72 1047.8
20260502005756 39 26 0.0 2.0 0.00 0.04 0.04 71 1047.8
20260502004253 39 101 0.0 3.0 0.00 0.04 0.04 70 1047.7
20260502002749 39 90 0.0 5.0 0.00 0.04 0.04 70 1047.7
20260502001248 40 71 3.0 5.0 0.00 0.04 0.04 68 1047.4
20260501235743 41 82 1.0 2.0 0.00 0.04 0.04 71 1047.4
20260501234239 41 85 0.0 4.0 0.00 0.04 0.04 72 1047.4
20260501232735 41 68 2.0 6.0 0.00 0.04 0.04 71 1047.6
20260501231234 40 93 4.0 6.0 0.00 0.04 0.04 81 1047.2
20260501225734 40 175 1.0 6.0 0.00 0.04 0.04 80 1047.3
20260501224231 40 80 5.0 6.0 0.00 0.04 0.04 84 1047.2
20260501222731 40 66 1.0 2.0 0.02 0.04 0.04 83 1047.3
20260501221228 42 66 1.0 4.0 0.00 0.04 0.04 75 1047.0
20260501215726 43 74 6.0 7.0 0.00 0.04 0.04 71 1046.9
20260501214224 43 83 0.0 3.0 0.00 0.04 0.04 73 1046.8
20260501212719 43 354 3.0 4.0 0.00 0.04 0.04 72 1046.8
20260501211215 44 150 2.0 3.0 0.00 0.04 0.04 72 1046.8
20260501205711 43 90 2.0 5.0 0.00 0.04 0.04 77 1047.1
20260501204207 42 53 2.0 3.0 0.00 0.04 0.04 79 1047.0
20260501202704 41 69 5.0 5.0 0.02 0.04 0.04 82 1046.9
20260501201200 42 123 1.0 5.0 0.00 0.03 0.03 79 1047.1
20260501195657 44 65 4.0 4.0 0.00 0.03 0.03 76 1046.8
20260501194156 44 21 0.0 5.0 0.00 0.03 0.03 77 1046.8
20260501192655 44 60 2.0 5.0 0.00 0.03 0.03 79 1046.6
20260501191152 43 0 1.0 3.0 0.00 0.03 0.03 79 1046.6
20260501185652 43 82 2.0 10.0 0.00 0.03 0.03 77 1046.3
20260501184150 45 345 3.0 6.0 0.00 0.03 0.03 75 1046.2
20260501182646 44 49 0.0 9.0 0.00 0.03 0.03 75 1045.9
20260501181143 45 30 3.0 6.0 0.00 0.03 0.03 73 1046.2
20260501175639 44 26 3.0 8.0 0.00 0.03 0.03 71 1045.7
20260501174137 46 50 4.0 7.0 0.00 0.03 0.03 72 1045.8
20260501172633 47 81 0.0 5.0 0.00 0.03 0.03 63 1046.0